Content
SEND FEEDBACK

Daily
Averages
Monthly
Summary
United States of America

NEW YORK - CENTRAL PARK, NEW YORK


Home > North America > United States > New York
Elevation: 4 meters     Latitude: 40 47N     Longitude: 073 58W

WEATHER
 
SELECT A DAY
Number of Records: 148,218;   Date Range: 11/1/95 - 8/30/14
 
SHARE

PRINT THIS DATA

[ ← Previous Day ]
WEATHER ALMANAC - 14 MARCH, 2014
[ Next Day → ]
[ °F ]   °C
Weather ElementAverageHighLow
Temperature1.2 °C6.7 °C (3:51 pm)-5.6 °C (1:51 am)
Dewpoint-12.2 °C-4.4 °C (9:51 pm)-19.4 °C (2:51 am)
Humidity37.3 %51 % (9:51 pm)25 % (3:51 pm)
Barometer1019.3 hPa1023.4 hPa (8:51 am)1012.9 hPa (11:51 pm)
Wind Speed8.9 km/h14.8 km/h (3:51 am)
Wind Gust33.3 km/h (12:51 pm)
Weather ElementAverage
Visibility16.1 km
Wind DirectionENE (80.9 °)

Weather ElementTotal
Precipitation---
Heating Degree Days17.8 (Base 18.3)
Averaged from 23 records on 14 March, 2014
WEATHER CONDITIONS BREAKOUT
WIND DIRECTION BREAKOUT
WEATHER BY HOUR - 14 MARCH, 2014
[ °F ]   °C
Local TimeTemperatureDewpointHumidityBarometerVisibilityWind DirectionWind SpeedGust SpeedPrecipitationEventsConditions
1:51 AM-5.6 °C-18.9 °C35 %1020 hPa16.1 kmVariable9.3 km/hClear
2:51 AM-5.6 °C-19.4 °C34 %1020.3 hPa16.1 kmVariable7.4 km/hOvercast
3:51 AM-5 °C-19.4 °C32 %1020.3 hPa16.1 kmWest (280°)14.8 km/hPartly Cloudy
4:51 AM-5 °C-18.9 °C34 %1021.7 hPa16.1 kmVariable7.4 km/hClear
5:51 AM-5 °C-19.4 °C32 %1022 hPa16.1 kmCalmClear
6:51 AM-4.4 °C-18.9 °C32 %1022.4 hPa16.1 kmVariable7.4 km/hClear
7:51 AM-3.3 °C-17.2 °C34 %1023 hPa16.1 kmVariable11.1 km/hClear
8:51 AM-2.2 °C-16.1 °C34 %1023.4 hPa16.1 kmVariable5.6 km/hOvercast
9:51 AM-1.1 °C-14.4 °C36 %1023.4 hPa16.1 kmVariable7.4 km/hOvercast
10:51 AM0 °C-13.9 °C35 %1022.7 hPa16.1 kmVariable9.3 km/hOvercast
11:51 AM1.7 °C-13.3 °C33 %1022 hPa16.1 kmVariable5.6 km/hOvercast
12:51 PM2.2 °C-12.2 °C34 %1021.7 hPa16.1 kmVariable9.3 km/h33.3 km/hOvercast
1:51 PM4.4 °C-11.7 °C31 %1020.7 hPa16.1 kmWSW (250°)14.8 km/hScattered Clouds
2:51 PM5.6 °C-12.2 °C27 %1019.3 hPa16.1 kmSouth (190°)13 km/h33.3 km/hClear
3:51 PM6.7 °C-12.2 °C25 %1018.3 hPa16.1 kmSSW (210°)14.8 km/hClear
4:51 PM6.7 °C-7.2 °C37 %1016.9 hPa16.1 kmVariable5.6 km/hClear
5:51 PM6.1 °C-6.1 °C42 %1015.9 hPa16.1 kmSouth (180°)11.1 km/h27.8 km/hClear
6:51 PM5.6 °C-5 °C47 %1015.6 hPa16.1 kmSouth (170°)13 km/hClear
7:51 PM5 °C-5 °C49 %1014.9 hPa16.1 kmSouth (180°)11.1 km/hClear
8:51 PM5 °C-5 °C49 %1014.9 hPa16.1 kmSouth (180°)13 km/hClear
9:51 PM5 °C-4.4 °C51 %1014.6 hPa16.1 kmSW (220°)7.4 km/hClear
10:51 PM5.6 °C-4.4 °C49 %1013.9 hPa16.1 kmCalmClear
11:51 PM6.1 °C-4.4 °C47 %1012.9 hPa16.1 kmVariable5.6 km/hClear
Hourly data recorded from KNYC, located 0 kilometers away from New York - Central Park, New York







STORIES FROM OUR PARTNERS